Regional Weather Roundup
Issued by NWS

Home | Current Version | Previous Version | Text Only | Print | Product List | Glossary On
Versions: 1 2 3 4 5 6 7 8 9 10 11 12 13 14 15 16 17 18 19 20 21 22 23 24 25 26 27 28 29 30 31 32 33 34 35 36 37 38 39 40 41 42 43 44 45 46 47 48 49 50
000
ASUS43 KDTX 190810
RWRMI
MICHIGAN HOURLY REGIONAL WEATHER ROUNDUP
NATIONAL WEATHER SERVICE DETROIT/PONTIAC MI
400 AM EDT SAT APR 19 2014

NOTE: "FAIR" INDICATES FEW OR NO CLOUDS BELOW 12,000 FEET WITH NO
SIGNIFICANT WEATHER AND/OR OBSTRUCTION TO VISIBILITY.

MIZ047>049-052>055-059>063-066>070-074>076-081>083-190900-
SOUTHEAST LOWER MICHIGAN

CITY           SKY/WX    TMP DP  RH WIND       PRES   REMARKS
ADRIAN         CLOUDY    39  31  72 E13       30.37R
ALMA           CLEAR     31  27  86 CALM      30.43R
ANN ARBOR      CLEAR     36  28  73 NE9       30.38R
BAD AXE        CLEAR     30  27  88 CALM      30.41R
DETROIT CITY   CLEAR     37  27  67 N10       30.39S
DETROIT        PTCLDY    37  27  67 N10       30.39S
FLINT          CLEAR     32  28  85 NE6       30.41S
GROSSE ILE     CLEAR     37  28  70 NE14      30.36S
HILLSDALE      CLEAR     39  36  86 E3        30.33S
HOWELL         CLEAR     32  28  86 NE7       30.39R

CITY           SKY/WX    TMP DP  RH WIND       PRES   REMARKS
JACKSON        CLEAR     36  31  82 NE7       30.36S
LAMBERTVILLE   PTCLDY    37  32  81 NE6       30.37R
LANSING        CLEAR     33  29  85 E6        30.40R
LAPEER         NOT AVBL
MASON          CLEAR     33  30  88 NE6       30.39R
MONROE         CLEAR     37  30  75 NE7       30.36R
MT. CLEMENS    CLEAR     30  28  89 N6        30.38F
PONTIAC        PTCLDY    32  27  81 NE5       30.38S
PORT HOPE        N/A     35  31  85 N5        30.40R
PORT HURON     CLEAR     32  28  86 N3        30.40R
TRI CITIES     CLEAR     33  26  75 N3        30.43R
YPSILANTI      CLEAR     38  28  67 NE13      30.38S
$$
MIZ043>046-050>051-056>058-064>065-071>073-077>080-190900-
SOUTHWEST LOWER MICHIGAN

CITY           SKY/WX    TMP DP  RH WIND       PRES   REMARKS
BATTLE CREEK   CLEAR     37  30  75 NE7       30.36S
BENTON HARBOR  CLEAR     34  28  79 NE6       30.36S
BIG RAPIDS     CLEAR     28  24  86 CALM      30.41R
COLDWATER      CLEAR     38  32  81 NE7       30.34S
HOLLAND        CLEAR     37  26  64 NE7       30.39S
GRAND RAPIDS   CLEAR     35  27  72 NE10      30.40R
KALAMAZOO      CLEAR     38  29  70 NE5       30.36S
MARSHALL       CLEAR     37  32  83 NE6       30.35S
MUSKEGON       CLEAR     34  24  67 NE9       30.42R
$$
MIZ016>042-190900-
NORTHERN LOWER MICHIGAN

CITY           SKY/WX    TMP DP  RH WIND       PRES   REMARKS
ALPENA         CLEAR     29  28  96 NW3       30.43R
BEAVER ISLAND  CLEAR     24  23  96 CALM      30.46R FOG
BELLAIRE       CLEAR     25  24  93 CALM      30.45R
CADILLAC       CLEAR     25  24  98 CALM      30.38R
CHARLEVOIX     CLEAR     28  27  96 CALM      30.48R
FRANKFORT      SUNNY     29  26  89 E3        30.44R
GAYLORD        CLEAR     28  26  92 CALM      30.40R
GRAYLING       CLEAR     20  20  98 CALM      30.42R FOG
HARBOR SPRINGS CLEAR     28  26  93 CALM      30.44R
HOUGHTON LAKE  CLEAR     27  24  89 NE5       30.41R
MANISTEE       CLEAR     30  25  80 CALM      30.45R
OSCODA         CLEAR     28  26  89 N5        30.41R
PELLSTON       CLEAR     24  22  91 CALM      30.45
TRAVERSE CITY  CLEAR     27  23  85 CALM      30.44R
$$
MIZ007>008-015-190900-
EASTERN UPPER MICHIGAN

CITY           SKY/WX    TMP DP  RH WIND       PRES   REMARKS
KINROSS        CLOUDY    28  28 100 CALM      30.45R VSB 1/4
MACKINAC ISLAN MOCLDY    27  27 100 NE7       30.44R
NEWBERRY       CLEAR     25  24  98 N5        30.45R
S. S. MARIE    FOG       28  25  88 NW3       30.45R VSB 1/4
$$
MIZ004>006-011>014-085-190900-
CENTRAL UPPER MICHIGAN

CITY           SKY/WX    TMP DP  RH WIND       PRES   REMARKS
MANISTIQUE     CLEAR     25  24  94 N5        30.46R
ESCANABA       CLEAR     25  21  86 NE3       30.44S
MENOMINEE      PTCLDY    27  25  93 E5        30.44S
SAWYER-GWINN   CLEAR     20  18  91 CALM      30.41F
$$
MIZ001>003-009>011-084-190900-
WESTERN UPPER MICHIGAN

CITY           SKY/WX    TMP DP  RH WIND       PRES   REMARKS
IRON MOUNTAIN  PTCLDY    24  20  84 SW3       30.40F
HOUGHTON       MOCLDY    28  24  85 SE7       30.40R
COPPER HARBOR    N/A     24  21  88 CALM      30.43F
IRONWOOD       CLOUDY    36  21  55 SE10      30.30S
$$

ABBREVIATIONS USED IN REMARKS
   TC - TEMPERATURE IN CELSIUS
  WCI - WIND CHILL INDEX
   HX - HEAT INDEX
  VSB - VISIBILITY




USA.gov is the U.S. government's official web portal to all federal, state and local government web resources and services.